Amritsar, India

4:18 AM IST on February 14, 2016 (GMT +0530)
Amritsar

Weather History for VIAR - May, 2013

Change the Weather History Date:

Tuesday, May 28, 2013

  Actual Average Record
Temperature  
Mean Temperature 95 °F -  
Max Temperature 110 °F 99 °F 111 °F (2006)
Min Temperature 80 °F 75 °F 64 °F (2008)
Cooling Degree Days 30    
Growing Degree Days 45 (Base 50)    
Moisture  
Dew Point 65 °F    
Average Humidity 36    
Maximum Humidity 54    
Minimum Humidity 16    
Precipitation  
Precipitation 0.00 in - - ()
Sea Level Pressure  
Sea Level Pressure 29.58 in    
Wind  
Wind Speed 7 mph ()    
Max Wind Speed 17 mph    
Max Gust Speed -    
Visibility 2.8 miles    
Events      
Averages and records for this station are not official NWS values.
T = Trace of Precipitation, MM = Missing Value Source: Averaged Metar Reports

Daily Weather History Graph

Daily Weather History Graph

Search for Another Location

Airport or City:

Trip Planner

Search our weather history database for the weather conditions in past years. The results will help you decide how hot, cold, wet, or windy it might be!

Date:

Astronomy

May. 28, 2013 Rise Set
Actual Time 5:27 AM IST 7:28 PM IST
Civil Twilight 4:59 AM IST 7:55 PM IST
Nautical Twilight 4:26 AM IST 8:29 PM IST
Astronomical Twilight 3:51 AM IST 9:05 PM IST
Moon 10:38 PM IST (5/28) 8:38 AM IST (5/28)
Length of Visible Light 14h 56m
Length of Day
14h 01m
Waning Gibbous, 86% of the Moon is Illuminated
May 28
Waning Gibbous
Jun 1
Last Quarter
Jun 8
New
Jun 16
First Quarter
Jun 23
Full

Hourly Weather History & Observations

Time (IST) Temp. Heat Index Dew Point Humidity Pressure Visibility Wind Dir Wind Speed Gust Speed Precip Events Conditions
12:00 AM 89.6 °F 93.4 °F 68.0 °F 49% 29.59 in 2.5 mi NNE 6.9 mph - N/A   Haze
1:00 AM 87.8 °F 90.4 °F 66.2 °F 49% 29.59 in 2.5 mi NNE 6.9 mph - N/A   Haze
1:30 AM 87.8 °F 90.4 °F 66.2 °F 49% 29.59 in 2.5 mi NNE 6.9 mph - N/A   Haze
2:30 AM 86 °F - 66 °F 42% 29.55 in 2 mi NNE 5.8 mph - -   Haze
2:30 AM 86.0 °F 88.2 °F 66.2 °F 51% 29.59 in 2.5 mi NNE 6.9 mph - N/A   Haze
4:30 AM 86.0 °F 88.2 °F 66.2 °F 51% 29.59 in 2.5 mi NNE 6.9 mph - N/A   Haze
5:00 AM 86.0 °F 88.2 °F 66.2 °F 51% 29.59 in 2.5 mi NNE 6.9 mph - N/A   Haze
5:30 AM 83 °F - 64 °F 43% 29.55 in 2 mi NNE 5.8 mph - -   Haze
6:00 AM 84.2 °F 85.6 °F 64.4 °F 51% 29.59 in 2.5 mi NNE 6.9 mph - N/A   Haze
6:30 AM 82.4 °F 83.9 °F 64.4 °F 54% 29.59 in 2.5 mi West 8.1 mph - N/A   Haze
7:00 AM 82.4 °F 83.9 °F 64.4 °F 54% 29.59 in 2.5 mi West 8.1 mph - N/A   Haze
8:00 AM 84.2 °F 85.6 °F 64.4 °F 51% 29.62 in 3.1 mi West 8.1 mph - N/A   Haze
8:30 AM 91 °F - 67 °F 35% 29.60 in 2 mi West 6.9 mph - -   Haze
9:30 AM 91.4 °F 94.0 °F 66.2 °F 43% 29.65 in 3.1 mi West 6.9 mph - N/A   Haze
11:30 AM 101 °F - 66 °F 22% 29.60 in 2 mi West 6.9 mph - -  
12:00 PM 102.2 °F 106.9 °F 66.2 °F 31% 29.65 in 3.7 mi West 6.9 mph - N/A   Unknown
2:00 PM 104.0 °F 107.4 °F 64.4 °F 27% 29.62 in 3.7 mi NNW 4.6 mph - N/A   Partly Cloudy
2:30 PM 107 °F - 63 °F 16% 29.54 in 2 mi SE 4.6 mph - -   Scattered Clouds
3:00 PM 107.6 °F 110.6 °F 62.6 °F 23% 29.59 in 3.7 mi SSE 5.8 mph - N/A   Partly Cloudy
3:30 PM 109.4 °F 112.8 °F 62.6 °F 22% 29.56 in 3.7 mi West 6.9 mph - N/A   Partly Cloudy
4:00 PM 107.6 °F 110.6 °F 62.6 °F 23% 29.53 in 3.7 mi South 3.5 mph - N/A   Scattered Clouds
5:30 PM 103 °F - 64 °F 19% 29.49 in 2 mi NNW 17.3 mph - -   Widespread Dust
6:00 PM 102.2 °F 105.5 °F 64.4 °F 29% 29.56 in 3.1 mi NNW 13.8 mph - N/A   Scattered Clouds
6:30 PM 102.2 °F 105.5 °F 64.4 °F 29% 29.56 in 3.1 mi NNW 11.5 mph - N/A   Partly Cloudy
7:00 PM 102.2 °F 105.5 °F 64.4 °F 29% 29.59 in 3.1 mi NNW 11.5 mph - N/A   Partly Cloudy
7:30 PM 102.2 °F 105.5 °F 64.4 °F 29% 29.59 in 3.1 mi NNW 11.5 mph - N/A   Partly Cloudy
8:00 PM 102.2 °F 105.5 °F 64.4 °F 29% 29.59 in 3.1 mi NW 9.2 mph - N/A   Partly Cloudy
8:30 PM 101 °F - 65 °F 22% 29.54 in 2 mi NW 6.9 mph - -   Widespread Dust
8:30 PM 102.2 °F 105.5 °F 64.4 °F 29% 29.59 in 3.1 mi NW 6.9 mph - N/A   Partly Cloudy